Regional Weather Roundup
Issued by NWS

Home | Current Version | Previous Version | Text Only | Print | Product List | Glossary Off
Versions: 1 2 3 4 5 6 7 8 9 10 11 12 13 14 15 16 17 18 19 20 21 22 23 24 25 26 27 28 29 30 31 32 33 34 35 36 37 38 39 40 41 42 43 44 45 46 47 48 49 50

837
ASUS43 KBIS 231210
RWRND

NORTH DAKOTA REGIONAL WEATHER ROUNDUP
NATIONAL WEATHER SERVICE BISMARCK ND
600 AM CST MON JAN 23 2017

NOTE: "FAIR" INDICATES FEW OR NO CLOUDS BELOW 12,000 FEET WITH NO
SIGNIFICANT WEATHER AND/OR OBSTRUCTIONS TO VISIBILITY.


NDZ001>003-009>011-017-231300-
NORTHWEST NORTH DAKOTA

CITY           SKY/WX    TMP DP  RH WIND       PRES   REMARKS
WILLISTON      CLOUDY    27  24  89 NW3       29.77S
6HR MIN TEMP:  26; 6HR MAX TEMP:  28;

MINOT          CLOUDY    27  22  81 W5        29.75F
MINOT AFB      CLOUDY    26  22  83 NW8       29.74F WCI  17
$$

NDZ018>021-031>035-040>046-231300-
SOUTHWEST NORTH DAKOTA

CITY           SKY/WX    TMP DP  RH WIND       PRES   REMARKS
BISMARCK       CLOUDY    30  23  75 NW3       29.79F
6HR MIN TEMP:  29; 6HR MAX TEMP:  32;

DICKINSON      CLOUDY    23  19  85 S3        29.74R
GARRISON         N/A     27  22  81 W5        29.75F
6HR MIN TEMP:  26; 6HR MAX TEMP:  28;

HETTINGER ARPT FOG       23  21  92 SE3       29.76R VSB 1/4
$$

NDZ004>008-012>016-024-026-027-054-231300-
NORTHEAST NORTH DAKOTA

CITY           SKY/WX    TMP DP  RH WIND       PRES   REMARKS
GRAND FORKS    CLOUDY    33  27  78 W7        29.77F
GRND FRKS AFB  CLOUDY    31  26  81 W10       29.77S
DEVILS LAKE    CLOUDY    28  25  88 W8        29.76F WCI  20
$$

NDZ022-023-025-028>030-036>039-047>053-231300-
SOUTHEAST NORTH DAKOTA

CITY           SKY/WX    TMP DP  RH WIND       PRES   REMARKS
FARGO          CLOUDY    35  28  75 W7        29.81S
6HR MIN TEMP:  34; 6HR MAX TEMP:  36;

JAMESTOWN      CLOUDY    30  25  81 NW8       29.77S
$$





USA.gov is the U.S. government's official web portal to all federal, state and local government web resources and services.